RH
26 26 26 27 26 25 23 21 18 16 15 15 15 13 12 9 8 8 11 14 16 15 14 20 19 18 18 19 20 30 82 72 28 32 37 21 24 28 36 49 57 43 51 51 49
29 25 24 22 22 22 24 24 21 18 16 14 14 14 12 9 6 13 13 15 13 14 14 16 14 15 14 15 16 21 49 21 17 18 21 22 20 35 48 43 54 56 44 47 47
35 32 28 24 22 20 20 21 22 20 17 14 14 13 12 10 17 12 12 12 13 14 14 16 14 14 14 12 13 16 19 15 16 18 18 19 24 41 46 53 43 54 38 42 46
37 36 34 30 26 21 19 18 20 21 19 14 13 13 11 10 17 15 12 10 12 14 16 15 15 14 13 12 12 15 14 14 13 14 17 19 20 32 36 29 34 40 37 39 43
37 35 33 32 30 25 19 17 17 20 19 14 12 12 11 34 15 16 8 7 13 14 20 14 14 13 14 12 11 12 13 12 12 13 17 15 16 21 45 31 30 33 36 36 41
37 34 32 30 29 24 18 17 15 18 19 14 12 12 13 22 11 18 17 9 13 16 14 13 13 13 14 12 12 12 12 12 12 14 14 12 12 17 44 30 32 34 34 33 36
39 36 32 29 28 23 17 17 14 16 19 14 12 12 27 20 12 16 16 22 12 14 14 13 13 13 13 11 12 11 13 12 13 12 11 12 17 19 24 25 28 31 32 32 33
39 37 33 28 27 24 17 17 12 18 17 12 11 12 29 13 11 13 12 12 13 12 13 12 13 13 13 12 12 11 12 15 14 12 11 10 17 16 16 18 24 27 29 34 36
38 36 33 30 26 25 17 16 12 18 13 12 17 17 17 10 9 11 10 9 11 11 12 12 13 13 12 13 12 12 15 15 16 12 12 11 13 9 13 17 18 23 28 32 38
37 35 32 29 25 24 17 13 15 15 15 13 25 30 19 9 7 10 11 10 10 10 10 11 11 11 11 11 15 13 16 13 12 11 10 12 11 9 8 12 16 23 26 31 36
36 33 32 28 24 23 17 12 35 42 42 22 16 12 8 7 10 10 11 11 10 9 10 9 10 11 10 9 10 10 11 12 10 8 11 11 11 10 8 9 14 16 22 28 31
34 32 30 26 23 21 16 31 16 20 18 24 16 10 11 10 8 10 10 8 7 7 6 8 9 7 7 7 8 9 11 10 8 8 10 11 10 9 8 8 10 15 17 25 27
35 31 29 26 21 19 13 21 19 17 15 14 15 12 11 10 7 7 10 8 8 7 6 6 5 5 6 6 8 9 9 9 9 8 8 9 11 11 8 8 8 11 15 19 24
36 32 28 25 31 27 24 20 19 20 18 13 12 12 12 9 8 6 9 8 8 8 7 6 5 6 6 7 6 9 6 7 6 8 11 8 14 14 8 10 9 9 12 15 20
36 31 28 25 22 25 25 20 20 19 29 13 11 12 11 10 9 9 8 8 9 8 8 8 7 7 7 6 6 6 5 6 6 8 9 9 11 10 9 9 8 8 9 11 18
35 30 27 27 21 21 25 21 21 20 19 14 13 14 11 10 9 10 9 8 8 8 8 8 8 7 8 6 6 5 5 6 6 7 11 9 9 9 10 10 9 8 8 10 14
32 28 26 24 27 22 21 21 20 20 11 14 13 11 11 10 9 9 10 10 10 13 12 10 10 8 7 9 7 6 6 9 11 11 12 8 9 9 9 8 7 7 7 9 12
26 26 24 23 28 25 24 18 26 14 10 9 10 10 11 10 10 9 10 12 10 9 10 11 13 9 8 9 10 8 6 8 15 12 13 14 12 9 6 5 6 6 7 8 9
25 29 28 32 16 26 23 21 17 13 10 10 10 11 11 10 10 10 10 10 9 8 11 12 14 8 8 7 8 9 10 6 9 8 9 8 7 8 6 6 6 8 9 9 10
25 37 26 26 26 26 21 24 15 12 11 10 14 11 12 11 12 11 11 9 9 7 8 10 14 10 8 8 8 8 6 9 9 16 15 10 15 17 10 9 9 9 10 10 11
29 31 23 22 24 22 21 15 11 11 12 12 13 13 12 14 14 12 11 10 9 10 10 10 11 12 10 11 11 10 12 8 7 9 14 15 21 13 15 9 9 9 11 10 12
41 26 22 20 20 17 16 12 14 12 12 11 12 13 14 13 12 11 15 15 13 12 14 12 13 15 12 9 8 10 10 10 13 15 11 12 14 10 11 10 8 9 11 13 13
44 23 23 19 21 17 12 14 13 11 12 12 12 12 13 15 18 14 14 14 15 13 23 18 18 19 16 12 18 16 14 14 11 10 17 16 16 22 20 16 21 18 14 16 18
42 20 19 19 20 19 18 16 16 15 14 14 14 14 15 15 14 16 15 14 15 15 18 17 16 18 20 18 15 17 17 16 17 20 17 14 14 17 21 23 22 19 16 17 18
38 22 22 19 16 16 17 19 18 17 15 16 17 16 17 20 18 16 16 15 15 19 17 18 22 18 17 16 15 16 16 15 18 18 22 17 15 14 13 13 17 20 29 22 22
31 30 29 20 24 21 28 19 19 18 19 20 20 19 18 21 22 26 22 22 23 18 19 17 26 22 24 19 17 18 16 15 14 15 15 14 14 16 33 30 16 22 32 63 42
37 34 30 24 18 19 21 22 21 20 20 19 20 20 19 23 21 20 18 16 16 18 18 18 20 24 27 20 19 23 17 15 15 15 18 27 29 51 60 65 91 97 58 47 61
Wind_Speed
9 9 10 10 11 11 11 11 11 11 11 10 9 9 10 10 9 10 11 10 8 12 8 5 10 10 13 16 1 15 3 7 3 9 5 2 5 3 23 29 29 16 23 27 24
10 10 10 11 11 12 11 11 11 10 10 10 9 8 9 10 10 15 15 15 14 10 7 9 13 6 15 8 1 1 8 6 3 10 2 7 4 19 9 7 3 6 29 21 23
12 12 12 12 12 12 12 11 10 10 10 9 7 7 7 9 9 6 16 16 13 9 8 8 9 12 14 5 5 2 5 7 12 11 5 4 12 24 17 7 17 21 19 18 24
14 14 14 13 13 13 12 11 10 9 9 8 6 5 6 5 2 4 8 14 13 9 9 11 11 14 15 4 5 5 1 4 7 6 12 2 1 16 22 6 16 18 14 17 22
15 15 15 14 14 13 12 10 9 8 7 6 5 4 4 6 6 5 6 13 13 9 9 11 11 9 11 6 6 9 5 6 7 12 6 10 11 5 31 24 4 13 13 14 17
19 18 17 16 15 13 11 9 7 6 6 5 4 4 4 11 0 3 1 12 13 12 10 10 9 9 9 9 10 9 8 10 5 7 13 7 12 5 20 16 11 12 13 13 16
21 20 19 17 16 14 11 8 6 4 4 4 3 4 8 14 3 3 7 11 14 13 11 9 10 10 13 9 7 7 12 14 8 2 6 11 9 1 14 11 16 14 9 12 8
22 22 21 19 16 14 11 7 4 3 3 2 2 4 8 5 5 5 7 10 12 13 12 10 5 12 15 13 15 13 16 14 10 2 3 10 3 5 3 4 12 17 13 9 10
23 22 22 21 17 14 10 6 2 1 1 3 3 4 9 3 8 7 8 11 12 12 11 9 8 14 17 15 14 14 11 9 10 7 1 7 10 10 9 11 8 12 17 15 13
23 23 22 21 18 14 9 4 1 2 2 5 6 7 12 9 8 9 9 8 12 11 12 13 15 12 13 10 11 9 5 9 4 3 4 8 12 9 10 11 8 18 19 17 19
24 23 22 21 17 14 7 2 4 3 12 13 11 8 7 5 9 10 10 9 11 10 13 16 11 13 16 16 17 14 9 10 11 11 4 10 13 13 16 13 15 12 19 20 20
24 23 22 20 17 12 5 4 9 7 14 20 14 13 2 6 8 11 12 12 13 13 14 13 16 16 17 16 15 11 12 13 11 12 6 12 15 18 15 13 18 19 15 23 18
24 24 21 19 14 7 5 9 9 8 8 16 16 13 11 10 14 15 16 16 12 12 14 15 18 6 6 13 16 11 12 13 13 12 14 18 20 20 15 22 11 20 19 21 23
24 24 20 16 6 6 7 4 4 6 5 13 13 12 16 10 14 14 18 16 11 13 14 13 13 15 12 12 15 13 14 13 8 10 11 15 12 17 13 13 13 14 21 18 22
24 22 18 13 7 3 4 4 4 3 6 12 12 9 14 12 12 12 15 16 16 13 8 14 14 11 13 14 12 15 12 12 12 12 14 17 10 15 12 7 9 10 14 20 23
22 21 16 9 7 9 4 6 4 6 6 9 11 11 15 19 12 11 11 15 14 13 17 18 18 11 11 10 10 10 16 12 14 13 13 20 15 12 11 12 9 14 11 17 21
20 18 14 8 3 2 5 5 6 9 8 12 13 15 15 14 16 10 10 13 12 12 15 19 20 17 16 11 14 9 11 10 11 11 10 1 3 5 13 9 7 9 13 14 18
18 15 10 8 7 6 5 7 8 13 4 7 4 14 13 14 15 12 12 12 16 15 13 14 7 14 14 11 13 11 12 11 16 12 4 10 7 3 2 4 6 11 9 15 16
13 5 7 4 9 7 10 9 14 11 7 4 10 9 13 13 8 12 12 12 10 16 10 13 10 6 3 3 9 12 12 17 16 16 13 12 11 8 10 7 9 4 3 15 16
8 7 5 6 8 7 8 15 19 8 7 7 12 11 12 15 13 8 10 10 8 5 4 10 9 9 13 6 10 9 12 12 8 9 11 10 10 7 7 6 6 6 7 13 16
3 6 8 8 9 10 9 14 3 4 6 8 11 9 7 4 11 10 6 9 4 4 3 12 11 14 5 8 12 10 11 10 13 11 12 8 2 1 7 6 4 6 4 18 19
7 5 9 10 10 14 12 10 4 7 3 9 5 12 13 13 6 2 7 14 10 6 7 12 9 12 17 17 10 14 12 13 8 10 11 12 10 4 2 9 4 6 7 2 25
6 3 7 11 7 9 8 5 3 5 9 5 7 3 9 10 6 11 1 10 9 9 10 12 8 9 13 10 17 14 18 18 16 16 15 11 9 15 13 24 32 31 14 9 7
7 4 8 12 16 15 4 6 7 1 9 7 9 7 8 10 10 8 11 4 8 6 9 7 12 15 14 21 18 9 10 17 18 14 16 15 17 3 16 10 3 31 3 14 11
6 5 8 4 9 10 6 8 5 2 3 2 3 6 8 6 13 9 4 10 6 10 4 5 14 15 18 21 22 22 22 18 18 21 19 23 22 18 18 5 10 6 21 25 12
8 8 13 9 2 5 3 6 7 4 1 6 5 10 8 5 10 11 12 8 7 10 15 13 13 16 19 21 22 25 22 23 22 20 24 24 24 17 35 38 18 22 18 15 17
11 7 8 1 8 8 4 8 6 9 3 5 8 8 8 12 12 14 15 16 16 14 13 13 12 13 17 18 20 19 20 22 23 19 20 14 15 20 20 27 37 43 36 19 13
Wind_Direction
341 333 326 320 315 311 309 308 307 306 304 303 305 304 299 292 275 261 251 240 227 254 262 295 261 267 265 268 234 118 132 276 1 112 227 79 112 298 60 48 330 16 140 151 150
351 342 333 324 317 313 310 309 308 306 304 303 305 304 304 299 280 256 230 239 239 237 247 277 298 281 271 248 141 141 166 341 54 16 159 72 347 88 67 90 229 211 116 138 156
358 350 340 331 324 318 313 308 305 304 302 302 304 304 302 303 306 222 223 235 229 220 239 289 290 276 283 259 47 31 7 11 339 13 359 287 3 98 123 136 231 223 125 151 161
0 353 344 336 330 322 315 308 302 300 300 301 301 298 296 308 338 177 223 228 219 213 246 276 261 264 275 328 81 286 10 343 320 314 295 322 110 156 171 114 162 164 133 158 170
3 355 348 341 335 327 318 308 302 298 298 300 294 288 290 262 253 297 241 207 203 203 238 252 273 289 283 349 294 254 24 305 314 295 323 314 311 67 29 333 73 116 137 157 157
4 359 353 345 340 334 324 313 301 293 292 292 282 269 259 251 353 281 172 201 195 207 232 247 261 344 312 275 295 6 300 289 292 314 309 343 315 229 114 188 155 137 150 161 177
0 358 354 348 342 337 329 317 303 287 285 284 264 259 256 243 261 243 193 208 201 211 232 240 275 292 276 281 326 305 266 261 192 290 295 325 358 306 153 184 141 160 181 149 165
355 355 351 349 343 338 332 321 300 285 284 262 228 242 261 182 218 222 190 197 206 215 234 280 278 267 283 291 288 239 244 263 134 226 90 294 280 160 157 175 172 167 165 162 163
348 351 348 346 341 337 332 323 288 277 245 179 146 277 256 262 206 198 184 189 199 212 232 261 262 269 267 263 267 233 261 161 201 179 328 280 307 295 181 178 229 181 166 167 171
343 345 345 343 339 333 331 318 261 211 204 195 223 251 248 233 191 184 185 209 199 214 230 242 251 253 247 254 263 331 253 325 339 276 281 315 290 313 275 188 223 176 171 170 175
339 340 341 339 335 326 315 257 300 233 216 220 159 246 138 126 168 187 191 192 201 222 231 227 235 241 246 248 259 294 325 296 287 281 294 291 286 279 275 213 191 225 180 178 186
334 336 338 336 331 321 271 213 350 319 300 229 247 242 205 187 187 199 190 204 206 232 219 247 232 242 257 277 280 314 294 278 281 267 299 275 291 280 262 253 206 190 214 184 188
330 331 335 334 332 321 261 248 307 321 266 211 211 219 205 213 226 200 197 213 230 228 244 239 258 233 297 273 275 255 269 288 296 314 304 276 262 260 282 210 242 190 202 198 190
326 326 331 334 349 354 294 310 292 313 276 164 198 218 202 209 235 216 201 218 234 257 261 261 256 274 253 271 271 279 277 278 318 301 282 313 302 274 250 175 185 213 206 201 190
321 321 323 320 264 262 294 321 295 259 275 146 141 146 179 201 104 194 192 217 254 257 230 270 257 241 270 267 274 278 302 313 306 280 284 275 263 280 161 187 182 193 231 203 190
319 315 315 314 274 218 290 296 309 234 255 149 148 188 199 212 242 135 198 222 248 263 265 275 275 266 272 280 260 279 272 274 270 257 260 255 240 276 161 142 160 175 197 210 192
315 307 299 255 129 277 256 265 233 248 123 153 174 173 202 194 230 166 199 207 231 231 242 238 233 232 241 249 268 252 256 258 245 234 252 249 174 236 135 163 183 189 192 187 196
312 300 280 242 233 259 229 233 253 256 168 61 130 167 201 183 217 189 205 225 213 255 280 284 349 195 189 216 268 223 253 266 295 309 315 293 281 197 210 96 129 236 230 187 196
314 294 286 300 213 192 227 230 235 313 15 358 188 265 194 227 227 197 217 257 235 203 253 299 45 127 227 279 215 253 254 252 282 292 285 281 256 354 180 170 222 5 290 162 188
312 217 233 197 175 179 236 255 296 8 359 297 281 205 232 201 193 236 239 224 249 225 306 294 294 295 142 200 235 253 279 271 243 261 266 266 62 40 47 75 54 268 186 160 179
251 233 161 168 174 221 241 239 273 94 331 280 295 295 285 61 259 232 230 122 159 41 321 309 297 287 239 218 263 191 225 236 273 291 301 282 104 129 347 311 291 262 223 173 170
285 274 162 164 202 224 243 332 38 301 182 268 287 309 307 341 301 240 103 55 39 345 314 307 311 291 290 311 277 279 293 289 251 246 249 279 297 46 218 316 247 253 182 263 168
277 245 179 187 242 246 207 286 293 287 255 301 264 298 358 305 328 298 66 95 53 4 30 353 296 293 278 278 13 330 337 339 306 284 277 260 262 93 352 332 331 326 155 196 208
298 197 156 211 264 282 312 228 179 188 302 303 309 334 276 273 269 275 293 105 67 37 32 332 285 282 285 300 315 293 294 292 305 304 307 298 312 240 161 154 226 310 174 174 200
257 347 8 189 234 252 341 7 267 187 227 270 238 278 349 328 302 303 321 309 79 110 230 271 269 285 297 303 307 304 301 288 276 290 299 302 301 304 308 278 228 345 332 307 172
330 350 341 308 241 330 143 237 286 45 333 23 280 19 333 310 348 356 356 344 331 326 320 325 309 312 304 299 296 293 287 288 287 270 272 281 288 347 13 5 230 202 182 309 68
344 314 279 283 259 241 19 55 27 27 128 333 349 318 304 15 335 313 303 291 283 285 288 292 294 301 292 302 300 291 296 303 308 304 302 332 349 16 11 11 13 3 4 183 155